Probability
0 0 0 0 0 0 0 0 0 0 0 0 0 0 0 0 0 0 0 0 0 0 0 0 0 0 0 0 0 0 0 0 0 0 0 1 2 2
0 0 0 0 0 0 0 0 0 0 0 0 0 0 0 0 0 0 0 0 0 0 0 0 0 0 0 0 0 0 0 0 0 0 0 0 1 1
0 0 0 0 0 0 0 0 0 0 0 0 0 0 0 0 0 0 0 0 0 0 0 0 0 0 0 0 0 0 0 0 0 0 0 0 0 0
0 0 0 0 0 0 0 0 0 0 0 0 0 0 0 0 0 0 0 0 0 0 0 0 0 0 0 0 0 0 0 0 0 0 0 0 0 0
0 0 0 0 0 0 0 0 0 0 0 0 0 0 0 0 0 0 0 0 0 0 0 0 0 0 0 0 0 0 0 0 0 0 0 0 0 0
0 0 0 0 0 0 0 0 0 0 0 0 0 0 0 0 0 0 0 0 0 0 0 0 0 0 0 0 0 0 0 0 0 0 0 0 0 0
0 0 0 0 0 0 0 0 0 0 0 0 0 0 0 0 0 0 0 0 0 0 0 0 0 0 0 0 0 0 0 0 0 0 0 0 0 0
0 0 0 0 0 0 0 0 0 0 0 0 0 0 0 0 0 0 0 0 0 0 0 0 0 0 0 0 0 0 0 0 0 0 0 0 0 0
0 0 0 0 0 0 0 0 0 0 0 0 0 0 0 0 0 0 0 0 0 0 0 0 0 0 0 0 0 0 0 0 0 0 0 0 0 0
0 0 0 0 0 0 0 0 0 0 0 0 0 0 0 0 0 0 0 0 0 0 0 0 0 0 0 0 0 0 0 0 0 0 0 0 0 0
0 0 0 0 0 0 0 0 0 0 0 0 0 0 0 0 0 0 0 0 0 0 0 0 0 0 0 0 0 0 0 0 0 0 0 0 0 0
0 0 0 0 0 0 0 0 0 0 0 0 0 0 0 0 0 0 0 0 0 0 0 0 0 0 0 0 0 0 0 0 0 0 0 0 0 0
0 0 0 0 0 0 0 0 0 0 0 0 0 0 0 0 0 0 0 0 0 0 0 0 0 0 0 0 0 0 0 0 0 0 0 0 0 0
0 0 0 0 0 0 0 0 0 0 0 0 0 0 0 0 0 0 0 0 0 0 0 0 0 0 0 0 0 0 0 0 0 0 0 0 0 0
0 0 0 0 0 0 0 0 0 0 0 0 0 0 0 0 0 0 0 0 0 0 0 0 0 0 0 0 0 0 0 0 0 0 0 0 0 0
0 0 0 0 0 0 0 0 0 0 0 0 0 0 0 0 0 0 0 0 0 0 0 0 0 0 0 0 0 0 0 0 0 0 0 0 0 0
0 0 0 0 0 0 0 0 0 0 0 0 0 0 0 0 0 0 0 0 0 0 0 0 0 0 0 0 0 0 0 0 0 0 0 0 0 0
0 0 0 0 0 0 0 0 0 0 0 0 0 0 0 0 0 0 0 0 0 0 0 0 0 0 0 0 0 0 0 0 0 0 0 0 0 0
0 0 0 0 0 0 0 0 0 0 0 0 0 0 0 0 0 0 0 0 0 0 0 0 0 0 0 0 0 0 0 0 0 0 0 0 0 0
0 0 0 0 0 0 0 0 0 0 0 0 0 0 0 0 0 0 0 0 0 0 0 0 0 0 0 0 0 0 0 0 0 0 0 0 0 0
0 0 0 0 0 0 0 0 0 0 0 0 0 0 0 0 0 0 0 0 0 0 0 0 0 0 0 0 0 0 0 0 0 0 0 0 0 0
0 0 0 0 0 0 0 0 0 0 0 0 0 0 0 0 0 0 0 0 0 0 0 0 0 0 0 0 0 0 0 0 0 0 0 0 0 0
0 0 0 0 0 0 0 0 0 0 0 0 0 0 0 0 0 0 0 0 0 0 0 0 0 0 0 0 0 0 0 0 0 0 0 0 0 0
Wind_Speed
14 14 12 9 9 9 8 8 8 7 8 7 6 5 5 4 4 5 5 5 7 8 8 9 10 12 13 14 14 15 16 16 16 17 18 19 19 19
11 13 13 10 9 8 8 8 8 8 8 5 5 4 5 4 4 5 5 5 7 8 8 9 10 11 12 13 14 14 15 15 15 17 18 18 19 19
13 14 14 12 9 8 8 8 8 8 10 7 5 4 5 5 4 5 4 5 5 7 8 10 11 11 12 12 13 14 15 15 15 16 17 18 19 19
15 14 14 11 13 10 9 10 9 9 8 9 6 4 6 5 5 5 4 4 5 6 9 10 10 11 11 12 12 13 14 14 15 16 17 18 18 19
15 15 14 14 14 11 11 10 8 7 8 7 6 3 3 3 4 5 5 5 5 6 8 9 10 10 11 12 13 13 13 13 15 16 17 17 18 18
13 13 14 14 14 13 11 11 9 8 7 7 6 4 3 3 4 4 4 4 5 5 6 7 9 11 11 12 12 12 12 13 15 16 16 17 17 17
13 13 12 13 13 11 9 9 9 8 7 6 6 5 4 3 4 4 5 4 5 4 4 5 6 6 7 9 9 10 12 14 15 16 16 16 16 17
12 11 11 12 12 13 13 13 12 10 9 8 7 7 7 6 4 4 4 3 4 2 4 6 5 6 6 6 8 11 13 14 15 15 16 16 17 17
11 10 7 8 11 10 11 12 11 11 11 9 8 8 7 6 5 5 5 5 5 3 4 6 5 6 5 6 10 12 13 14 14 15 16 16 17 18
10 10 10 10 10 10 8 8 7 8 8 7 7 6 5 5 5 5 4 4 4 3 3 5 5 6 6 6 8 10 12 13 14 15 16 16 17 17
9 9 9 9 11 12 9 8 7 5 5 6 5 4 4 4 4 3 3 2 3 3 2 4 4 6 6 6 5 9 12 13 14 15 16 16 16 16
6 7 9 9 11 13 10 9 8 7 6 5 5 5 5 5 7 5 4 3 2 3 2 3 3 4 5 5 5 6 7 10 13 14 15 15 15 10
6 6 6 11 12 12 10 8 8 7 6 6 4 4 4 3 4 3 3 3 3 3 2 2 3 3 4 5 6 6 6 7 8 9 11 13 14 11
6 5 5 11 11 11 8 7 9 8 5 5 4 4 4 3 3 3 3 3 3 4 4 4 4 4 5 6 6 6 6 7 7 7 7 10 11 13
5 7 8 10 9 8 8 9 9 6 5 5 5 4 3 3 2 2 2 2 2 3 4 5 5 5 5 6 7 7 7 7 6 6 7 7 8 8
5 7 9 9 6 6 7 6 5 5 5 5 4 3 3 3 3 2 2 2 2 2 3 4 5 6 7 8 8 9 8 7 6 7 8 8 8 8
6 5 4 5 4 4 4 4 4 4 4 4 4 4 3 3 2 2 2 2 3 3 3 3 4 6 8 8 7 8 8 8 8 8 8 9 8 8
7 6 5 5 5 5 5 5 4 4 4 4 4 4 4 3 3 2 2 2 3 3 3 3 3 4 4 6 9 8 7 7 7 8 8 9 10 8
5 5 5 5 5 5 5 5 4 4 4 4 4 4 3 3 3 3 2 3 3 3 3 3 3 3 5 6 4 7 7 7 8 8 7 8 10 10
4 5 5 5 5 5 5 4 4 4 4 4 4 4 4 4 3 3 3 3 3 3 3 3 3 3 5 6 5 6 9 8 7 8 8 8 9 11
4 4 4 4 5 5 4 4 4 4 4 4 4 4 4 3 3 3 3 4 4 3 4 4 4 6 5 4 6 7 6 8 9 8 8 8 8 7
4 4 4 4 4 5 4 4 4 4 4 4 3 3 3 3 3 3 3 3 3 3 4 4 3 3 3 5 7 8 8 8 9 12 12 11 7 6
4 4 4 4 4 4 4 5 5 4 4 4 3 3 3 3 3 3 3 3 3 3 3 3 3 3 4 5 6 7 9 9 7 7 7 9 13 15
Wind_Direction
217 218 220 220 219 221 225 227 236 251 251 238 224 210 215 221 209 231 244 240 257 271 278 284 287 289 292 294 296 298 300 302 301 299 297 297 299 300
213 215 218 219 219 219 220 222 227 239 254 247 232 215 205 220 218 236 243 243 251 264 274 283 287 290 293 295 296 297 299 301 302 301 300 300 301 301
212 215 217 216 216 216 215 217 222 228 245 251 240 230 219 223 221 235 243 247 249 256 271 280 284 287 291 295 297 299 300 301 302 302 302 302 301 301
213 214 217 214 217 216 214 217 220 222 233 247 240 224 229 228 233 238 244 251 262 261 268 275 279 284 290 294 296 297 299 301 301 300 299 300 301 301
215 215 216 214 217 216 215 217 219 219 223 237 242 226 228 224 238 244 248 254 263 267 265 266 271 279 286 289 293 295 297 298 298 299 300 300 300 301
218 218 218 217 217 215 214 216 214 213 216 227 233 229 227 222 232 242 250 250 263 266 261 268 272 275 277 282 288 291 293 296 297 299 300 301 301 301
218 219 220 218 217 214 210 209 206 209 211 217 224 224 219 212 224 229 251 263 264 254 266 268 274 272 273 276 279 286 293 296 297 298 298 299 300 300
216 218 217 214 213 212 211 210 205 205 208 210 218 224 227 224 223 227 243 259 265 235 272 274 271 271 275 277 285 289 292 295 298 300 301 301 300 299
216 213 211 210 207 211 209 206 210 212 212 212 216 223 224 218 212 223 231 245 259 278 279 271 270 274 280 280 283 284 288 292 298 300 300 300 300 299
214 211 209 207 205 201 198 201 210 214 213 215 221 222 220 208 204 213 226 249 276 265 255 266 276 283 290 282 275 278 287 292 295 298 299 299 299 300
212 209 205 205 196 185 187 194 201 208 197 195 205 204 191 184 178 174 190 224 260 257 244 264 282 297 289 277 271 279 287 290 293 296 298 299 300 301
205 204 201 201 191 183 190 192 197 198 183 180 185 185 183 176 182 192 195 214 250 252 218 260 282 308 293 279 285 289 286 288 292 295 296 298 301 298
198 197 196 189 190 190 194 199 197 186 181 177 178 178 178 180 186 194 200 214 232 248 233 250 271 278 272 290 292 288 289 294 295 292 292 297 299 295
196 193 188 186 190 191 194 189 176 170 167 168 177 185 187 188 188 196 208 231 246 252 248 245 254 262 273 282 284 291 296 294 293 292 296 299 296 291
187 179 179 181 184 188 185 176 169 166 166 174 184 189 185 175 170 184 205 220 255 256 245 247 252 259 260 265 278 289 298 296 292 294 299 299 297 294
163 162 164 167 169 174 173 169 168 170 170 172 170 165 158 168 186 194 213 227 256 263 246 251 255 258 262 265 269 277 284 286 293 299 301 297 293 286
155 150 157 163 165 162 158 155 155 157 163 162 163 165 171 183 194 199 213 233 250 264 271 268 265 265 261 262 267 269 279 285 289 297 299 295 291 287
152 161 169 173 172 167 163 160 162 167 166 163 168 174 180 186 193 199 212 234 250 263 273 283 293 292 276 253 236 262 276 285 294 295 292 291 291 291
157 166 171 170 166 164 164 164 168 166 161 168 175 179 181 189 196 203 215 233 251 264 272 276 278 282 287 293 265 233 269 290 294 291 286 285 288 292
163 162 163 162 162 164 165 163 160 161 164 169 177 182 185 190 197 208 221 234 252 263 269 266 262 267 270 284 289 280 268 277 286 290 292 292 287 286
162 158 157 158 158 159 160 161 162 165 168 173 181 187 191 193 200 213 225 233 248 256 265 271 275 281 278 271 273 279 283 278 281 284 292 294 296 292
156 155 154 155 157 158 158 158 160 164 169 179 186 191 192 194 199 211 222 232 244 256 268 278 282 273 264 266 281 290 298 304 295 284 273 267 280 289
154 155 154 157 158 157 159 162 165 172 177 181 186 189 189 191 198 210 222 234 249 259 272 281 285 276 272 274 283 291 299 307 307 308 297 288 283 278